Theta_e
293 293 292 292 292 292 291 291 291 290 290 290 290 290 289 289 288 288 287 287 286 286 286 286 287 287 287 286 285 283 282 282 282 282 282 281 281 280 280 280 280 280
293 293 292 292 292 292 291 291 291 291 290 290 290 290 289 289 288 288 287 287 286 286 286 286 286 286 286 285 284 283 282 282 282 281 281 280 280 280 280 280 280 280
293 292 292 292 292 292 291 291 291 291 290 290 290 289 289 288 288 287 287 286 286 286 286 286 286 286 285 284 284 283 282 282 281 281 280 280 280 279 279 279 279 279
293 292 292 292 292 292 291 291 291 290 290 290 289 289 289 288 288 287 286 286 286 286 285 285 285 285 284 284 283 282 281 281 281 280 280 280 279 279 279 278 278 278
292 292 292 292 291 291 291 291 291 290 290 290 289 289 288 288 287 287 286 286 285 285 285 285 285 284 284 283 282 281 281 281 280 279 279 279 279 278 278 278 278 278
292 292 292 292 291 291 291 291 291 290 290 290 289 289 288 288 287 287 286 286 285 285 285 285 285 284 283 282 281 281 281 280 280 279 279 279 278 278 277 277 277 277
292 292 291 291 291 291 291 290 290 290 290 289 289 288 288 287 287 287 286 286 285 285 285 285 284 283 282 282 281 281 280 280 279 278 278 278 277 277 277 276 276 276
291 291 291 291 291 291 290 290 290 290 289 289 288 288 288 287 287 286 286 285 285 285 285 285 284 283 282 282 281 280 280 279 279 278 278 278 277 276 276 276 276 276
291 291 290 290 290 290 290 290 289 289 289 289 288 287 287 287 287 286 285 285 285 285 285 284 283 282 282 281 280 280 279 279 278 278 278 277 276 276 275 275 275 275
290 290 290 290 290 290 290 289 289 289 288 288 288 287 287 286 286 285 285 284 285 285 284 284 283 282 281 280 280 280 279 279 278 278 278 277 276 275 275 275 274 274
290 290 290 289 289 289 289 289 288 288 287 287 287 286 286 285 285 284 284 284 285 285 284 283 282 281 281 280 280 279 279 279 278 278 277 276 275 274 274 274 274 273
290 290 289 289 289 288 288 287 287 287 287 286 286 286 285 285 284 284 284 284 284 284 283 282 282 281 280 280 280 279 279 278 278 277 276 275 274 274 274 273 273 273
289 289 289 289 288 288 287 286 286 286 286 285 285 285 285 284 283 283 283 283 283 283 282 281 281 280 280 280 279 279 278 278 277 277 275 274 274 273 273 273 272 273
289 289 288 288 288 287 286 285 285 285 285 285 284 284 284 284 283 282 282 282 281 281 281 280 280 280 280 279 279 279 278 277 277 276 274 273 273 272 272 272 273 273
289 288 287 287 287 286 285 284 284 284 284 284 284 283 283 283 282 282 281 280 280 280 280 279 280 280 280 279 279 278 278 277 276 275 273 272 272 272 273 273 273 274
288 287 287 286 286 285 284 284 283 283 283 283 283 282 282 281 281 280 280 280 279 279 279 279 279 279 279 279 278 278 277 276 275 274 273 272 272 273 274 274 274 274
287 287 286 285 284 284 283 283 282 282 282 282 281 281 280 280 280 279 279 279 279 279 279 279 279 279 279 278 277 277 276 275 274 273 273 273 274 274 274 275 275 275
287 286 285 284 284 283 282 282 281 281 281 280 280 280 279 279 279 279 278 278 278 278 279 279 279 279 278 278 277 276 276 276 275 274 274 274 274 275 275 275 275 275
286 285 284 283 283 282 281 281 280 280 280 280 279 279 278 278 277 277 277 276 277 278 278 279 279 278 278 277 276 276 276 276 276 275 275 275 275 275 275 275 275 275
285 284 283 282 282 281 280 280 279 279 279 279 278 277 277 276 276 276 276 276 277 278 278 278 278 278 277 276 276 276 277 277 276 275 275 275 275 275 275 275 274 274
284 283 282 281 281 280 279 279 278 278 277 277 277 276 276 275 275 275 275 276 277 277 277 278 277 277 276 275 275 276 276 276 276 275 275 275 275 275 274 274 274 274
283 282 281 280 279 279 278 277 277 277 276 276 275 275 274 274 274 274 275 276 276 277 277 277 277 276 275 275 275 275 276 276 276 275 275 275 274 274 273 273 273 273
283 282 280 279 278 277 277 277 276 276 275 275 274 274 273 273 273 274 275 276 277 277 277 277 276 275 274 274 274 275 276 275 275 275 275 274 274 273 273 273 273 273
282 281 280 279 278 277 277 276 276 275 275 274 274 273 273 273 273 274 275 276 277 277 277 277 276 274 274 274 274 275 275 275 274 274 274 274 273 273 273 273 273 274
281 281 280 279 277 277 277 276 275 275 274 274 274 274 273 273 274 274 274 275 276 277 276 276 275 274 273 273 274 274 275 275 274 274 273 273 273 273 273 274 274 274
281 280 280 278 277 277 276 276 275 274 273 273 273 273 273 273 273 274 274 274 275 275 275 275 274 273 273 273 274 274 275 275 274 274 273 273 273 273 274 274 274 274
Wind_Speed
44 43 42 42 41 40 41 41 42 42 42 43 43 42 40 37 34 31 29 26 23 21 19 17 15 12 11 10 9 10 11 12 11 10 10 11 13 14 15 15 14 14
44 43 42 41 41 41 41 42 42 42 42 41 41 40 39 36 33 31 29 27 24 22 20 17 15 13 12 11 11 12 12 12 11 10 11 12 13 14 15 14 14 14
44 44 44 43 43 42 41 41 41 41 41 40 40 39 37 35 32 31 29 27 25 23 20 18 15 14 13 12 12 12 12 12 11 11 12 12 12 13 14 13 14 14
46 46 46 45 43 41 41 40 40 40 40 40 39 38 36 34 32 31 29 27 25 23 20 18 16 15 13 13 12 12 12 12 11 11 12 12 12 12 13 13 14 14
47 46 45 44 42 41 41 41 42 41 40 40 39 37 36 35 34 32 30 28 26 23 21 19 17 15 14 13 12 12 12 12 11 11 12 12 12 12 13 13 14 14
44 44 44 43 42 42 42 43 43 42 41 40 39 38 37 36 35 34 32 30 28 25 22 20 18 16 15 14 13 13 12 12 11 11 12 13 13 13 14 14 15 15
43 44 43 42 42 43 43 43 43 43 42 41 40 39 39 38 37 35 33 31 29 26 23 21 19 17 16 14 14 13 13 13 12 12 13 14 14 14 15 15 15 15
41 41 41 41 42 43 43 43 43 44 43 42 42 41 40 40 38 36 34 32 29 27 24 22 20 18 16 16 15 14 14 14 14 14 14 15 14 15 15 15 15 16
37 38 39 40 42 43 44 44 44 44 44 44 43 42 41 40 39 37 35 32 30 27 25 23 21 19 18 17 16 15 15 15 15 15 15 15 15 15 16 15 15 16
37 38 39 40 42 43 44 44 44 44 45 45 44 43 42 40 39 37 36 34 31 29 27 25 23 21 19 18 17 16 16 15 15 15 15 14 15 16 15 15 15 17
39 39 41 42 42 42 43 44 44 45 45 44 44 43 42 41 39 38 37 35 33 31 29 27 24 22 20 18 17 16 15 15 14 14 15 14 15 16 15 15 16 17
40 41 43 44 43 42 42 42 43 44 44 44 44 43 42 41 40 39 38 36 34 32 29 27 24 21 19 18 16 16 15 15 14 14 15 15 15 15 14 15 16 17
42 44 45 45 44 42 40 40 41 43 44 44 44 43 42 41 41 40 38 36 34 31 28 25 23 21 19 17 16 16 15 15 14 14 14 15 15 14 14 15 16 16
42 42 42 43 42 40 39 40 40 41 42 43 43 42 42 42 41 39 37 34 32 30 27 25 22 20 19 18 17 16 15 15 14 14 14 14 14 14 15 15 16 17
39 38 38 39 39 39 39 40 40 41 41 41 42 41 41 40 40 38 36 34 31 28 26 24 22 21 19 17 17 16 15 15 14 13 13 14 14 14 15 14 14 16
37 36 36 37 38 39 39 40 40 41 41 41 41 41 40 39 38 36 35 34 31 29 27 24 23 20 18 17 16 15 15 14 13 12 12 13 13 12 12 12 12 14
36 36 36 37 38 39 39 40 40 41 41 41 40 40 39 38 38 36 35 34 32 30 28 25 23 20 18 17 16 15 14 13 11 12 12 12 12 11 11 12 13 13
36 37 37 37 38 39 40 40 41 41 41 41 40 40 40 39 38 37 36 34 32 29 27 25 22 20 19 18 17 16 14 13 12 12 12 11 11 11 12 12 13 12
37 37 38 38 39 40 40 41 42 42 42 42 42 41 40 39 38 37 35 33 31 29 27 24 22 21 20 20 18 16 15 14 14 13 12 11 11 11 13 13 12 13
37 38 39 39 39 40 41 42 42 42 42 42 41 40 40 39 37 36 35 33 31 29 27 25 23 22 21 20 18 16 15 15 15 14 12 11 12 12 12 13 13 14
38 39 39 39 39 40 41 42 42 42 41 41 41 41 40 39 38 36 35 33 31 29 27 25 23 22 21 20 18 15 14 14 14 13 12 12 12 12 12 13 14 15
40 39 38 39 40 40 41 41 41 41 41 41 39 38 37 36 35 35 34 33 30 29 27 25 24 22 21 20 18 15 14 14 13 12 12 13 12 11 11 13 14 15
40 40 39 39 40 40 40 40 40 40 40 40 39 37 35 35 35 35 34 33 32 30 28 26 25 23 22 21 19 16 14 14 14 13 12 12 11 10 11 13 15 16
40 40 39 39 40 41 40 39 39 40 40 41 40 39 37 37 37 36 34 33 32 31 29 27 26 24 22 21 19 17 15 14 13 12 12 11 11 11 12 13 15 15
39 40 41 41 41 41 40 40 39 39 40 40 39 40 39 38 37 36 35 33 32 30 28 26 25 24 23 21 19 17 15 14 13 12 11 12 11 12 13 14 13 13
39 41 41 41 41 39 38 38 38 38 38 38 37 37 38 38 37 37 35 33 32 29 28 27 26 24 23 22 19 17 15 14 13 12 12 11 11 13 15 14 12 12
Wind_Direction
209 208 208 208 208 208 206 203 201 199 199 199 199 201 203 203 202 203 203 204 205 206 205 206 211 216 223 231 236 240 244 249 253 253 251 249 249 251 254 259 262 266
209 209 209 209 209 209 208 206 203 202 201 201 202 203 204 204 202 202 203 203 203 204 204 206 210 215 222 228 232 238 243 248 249 247 247 246 247 250 255 261 266 270
209 209 208 209 209 208 207 206 205 204 203 203 204 204 204 204 203 202 204 204 202 202 203 206 210 215 221 226 232 238 242 246 245 242 243 245 246 252 257 263 268 272
208 209 209 209 209 207 206 205 205 205 204 204 204 204 204 202 202 202 202 203 203 203 204 207 212 216 221 225 231 236 239 240 239 238 241 245 248 255 262 268 271 274
208 208 208 208 207 206 205 204 205 205 204 205 204 203 202 201 201 201 201 202 203 204 206 209 213 216 220 225 228 233 234 234 236 237 242 249 254 259 265 268 270 275
209 208 207 207 205 205 205 205 206 205 204 205 203 201 201 200 200 200 200 202 203 205 207 209 213 215 218 222 225 228 231 232 234 236 243 251 256 261 263 265 268 273
208 207 205 205 204 205 205 205 205 205 204 203 201 200 200 199 199 200 202 203 204 205 208 210 213 214 216 220 223 224 227 229 232 234 242 250 255 260 262 264 269 272
207 205 204 203 203 203 203 204 204 204 203 201 200 199 199 199 200 201 202 204 204 206 208 210 212 213 216 219 219 220 223 227 230 234 241 247 252 258 262 265 270 272
207 204 203 203 202 202 202 202 202 202 201 200 199 198 199 200 201 201 202 202 204 205 207 209 210 212 215 217 216 218 221 225 229 234 240 247 252 258 262 266 271 274
208 203 202 203 203 203 202 201 200 200 199 199 199 198 198 199 201 202 201 201 202 204 205 207 209 210 212 213 215 217 220 225 229 235 241 248 255 259 263 268 272 274
207 203 201 203 204 204 203 201 199 198 198 198 198 198 198 198 199 200 201 201 202 203 205 206 207 208 209 210 213 216 220 226 230 236 244 249 254 259 263 268 271 274
206 203 202 202 203 204 203 201 198 197 197 197 198 198 197 198 199 199 201 202 202 203 204 204 205 207 208 208 211 215 219 226 230 237 244 248 254 259 264 268 270 273
206 206 203 201 202 202 201 200 198 197 196 196 198 198 197 198 198 199 201 201 202 202 202 203 203 204 207 207 209 214 218 224 231 236 243 249 255 260 263 267 270 273
208 208 205 201 199 199 198 198 197 197 197 197 197 198 199 199 199 199 199 200 200 201 200 202 202 203 205 204 206 213 217 222 228 234 242 249 255 260 265 269 273 276
207 206 205 201 196 195 196 196 196 196 196 196 197 198 199 200 200 199 198 197 197 198 199 200 202 204 203 203 206 211 214 219 226 232 238 247 254 261 268 271 272 274
203 203 202 199 195 193 194 193 194 194 195 196 197 197 198 198 198 198 198 197 196 195 197 199 201 202 199 201 206 207 210 215 220 229 236 245 254 258 262 266 265 266
200 199 198 197 195 193 192 192 192 193 193 194 195 196 197 197 197 197 197 198 197 195 196 198 199 197 194 197 202 203 209 214 216 229 237 241 247 251 256 263 265 265
197 195 195 195 193 192 191 191 191 191 191 192 193 194 195 195 196 197 196 196 196 195 196 197 196 192 189 194 196 196 204 215 221 227 231 233 239 248 258 264 268 269
195 193 193 193 192 191 190 189 189 190 190 191 192 193 193 193 194 195 195 194 194 194 195 195 191 187 188 191 191 190 195 207 218 220 222 231 240 248 257 261 265 271
193 192 192 192 191 189 188 188 188 189 190 190 191 191 190 191 192 193 193 194 194 194 194 193 188 185 188 189 187 191 193 198 211 219 224 234 240 246 255 260 264 269
192 192 191 190 189 188 187 187 188 188 188 189 190 190 190 191 191 192 193 192 193 193 193 191 187 184 186 187 186 188 191 196 208 218 223 231 238 246 256 262 264 266
191 190 189 188 187 186 186 187 187 187 187 187 188 188 189 189 190 191 191 191 190 192 192 189 185 183 185 187 185 184 187 195 204 211 220 231 241 251 258 260 263 266
191 189 188 187 186 186 186 187 187 186 187 186 185 185 186 188 189 190 190 190 189 190 191 188 183 183 186 186 184 182 184 192 202 210 220 232 243 253 258 260 263 264
191 189 188 186 187 188 188 187 187 186 187 187 186 186 187 188 189 189 189 191 191 190 190 187 182 183 187 185 181 180 183 191 200 208 219 233 245 253 259 263 264 265
191 190 189 188 189 190 188 187 187 187 187 188 188 189 188 187 187 186 186 189 191 189 188 186 183 183 186 184 178 177 183 190 197 206 220 233 244 255 261 262 264 269
191 191 191 191 190 189 188 187 187 187 186 187 188 188 186 184 183 183 184 186 187 186 186 186 185 183 182 179 176 177 182 188 197 209 221 233 247 257 259 260 267 276